Location: Humble ISD Astronomical Observatory
(29.9680°N, 95.2620°W)
Time: 23:04:51
(UTC-05:00)

Tiangong 2 - Pass Details

Date: 25 March 2019
Orbit: 378 x 389 km, 42.8° (Epoch: 22 April)

Event Time Altitude Azimuth Distance (km) Brightness Sun altitude
Exits shadow 06:08:27 43° 240° (WSW) 549 1.4 -16.0°
Maximum altitude 06:08:48 45° 217° (SW) 528 1.4 -15.9°
Drops below altitude 10° 06:11:50 10° 143° (SE) 1,394 4.2 -15.3°
Sets 06:13:57 0° 137° (SE) 2,247 5.4 -14.8°
